This demonstration page uses our WeatherBlox Daily Observations layout. Learn more.

Left ArrowRight Arrow

39.01783, -85.05884

Hourly Observations for August 13, 2017

Temp ( °F °C ) Dew Point ( °F °C ) Humidity (%) Winds ( mph kmh ) Pressure ( in mb ) Visibility ( mi km ) Precip ( " mm )
12:52 am 00:52 Partly Cloudy 67 19.4 60 15.6 79 79 N 5 7 30.01 1016 10 16 0.00 0.00
1:52 am 01:52 Mostly Clear 66 18.9 60 15.6 81 81 NNW 6 9 30.01 1016 10 16 0.00 0.00
2:52 am 02:52 Clear 64 17.8 60 15.6 87 87 N 5 7 30.01 1016 10 16 0.00 0.00
3:52 am 03:52 Clear 63 17.2 60 15.6 90 90 N 7 11 30.01 1016 10 16 0.00 0.00
4:52 am 04:52 Clear 62 16.7 60 15.6 93 93 N 5 7 30.01 1016 10 16 0.00 0.00
5:52 am 05:52 Clear 62 16.7 60 15.6 93 93 VRB 3 6 30.02 1017 10 16 0.00 0.00
6:52 am 06:52 Mostly Sunny 63 17.2 60 15.6 90 90 NNE 3 6 30.03 1017 10 16 0.00 0.00
7:52 am 07:52 Partly Cloudy 64 17.8 61 16.1 90 90 NNE 6 9 30.03 1017 10 16 0.00 0.00
8:52 am 08:52 Partly Cloudy 68 20 62 16.7 81 81 ENE 7 11 30.04 1017 10 16 0.00 0.00
9:52 am 09:52 Partly Cloudy 72 22.2 62 16.7 71 71 E 7 11 30.04 1017 10 16 0.00 0.00
10:52 am 10:52 Sunny 76 24.4 62 16.7 62 62 E 7 11 30.04 1017 10 16 0.00 0.00
11:52 am 11:52 Partly Cloudy 77 25 59 15 54 54 SE 3 6 30.04 1017 10 16 0.00 0.00
12:52 pm 12:52 Partly Cloudy 80 26.7 57 13.9 45 45 E 5 7 30.04 1017 10 16 0.00 0.00
1:52 pm 13:52 Partly Cloudy 80 26.7 55 12.8 42 42 Calm 30.02 1017 10 16 0.00 0.00
2:52 pm 14:52 Partly Cloudy 81 27.2 55 12.8 41 41 Calm 30.01 1016 10 16 0.00 0.00
3:52 pm 15:52 Partly Cloudy 82 27.8 56 13.3 41 41 ENE 7 11 29.98 1015 10 16 0.00 0.00
4:52 pm 16:52 Partly Cloudy 83 28.3 58 14.4 43 43 ESE 6 9 29.97 1015 10 16 0.00 0.00
5:52 pm 17:52 Partly Cloudy 82 27.8 57 13.9 42 42 VRB 5 7 29.97 1015 10 16 0.00 0.00
6:52 pm 18:52 Partly Cloudy 80 26.7 60 15.6 51 51 S 6 9 29.97 1015 10 16 0.00 0.00
7:52 pm 19:52 Partly Cloudy 77 25 59 15 54 54 SE 10 17 29.96 1015 10 16 0.00 0.00
8:52 pm 20:52 Partly Cloudy 72 22.2 60 15.6 66 66 SSE 6 9 29.96 1015 10 16 0.00 0.00
9:52 pm 21:52 Partly Cloudy 70 21.1 61 16.1 73 73 SSE 5 7 29.98 1015 10 16 0.00 0.00
10:52 pm 22:52 Partly Cloudy 71 21.7 61 16.1 71 71 SSE 3 6 29.97 1015 10 16 0.00 0.00
11:52 pm 23:52 Partly Cloudy 69 20.6 60 15.6 73 73 SSE 3 6 29.96 1015 10 16 0.00 0.00

Powered by AerisWeather